Wind_Speed
8 8 7 6 6 5 5 5 5 4 3 2 2 1 1 1 1 1 1 1 2 2 2 3 3 3 3 4 4 4 4 5 5 5 4 4 5 5 5 5 5 5 6
8 7 7 6 6 6 5 5 5 4 3 3 2 1 1 1 0 0 0 1 1 1 2 3 3 3 3 3 3 4 5 4 4 4 5 4 4 4 6 6 6 6 5
8 7 7 7 7 6 5 5 5 4 4 3 2 2 1 1 0 1 1 1 1 1 1 2 2 3 3 2 2 3 4 3 3 3 4 4 4 4 5 6 5 5 5
8 7 7 7 7 7 6 5 4 4 4 4 3 2 1 1 1 1 1 1 1 1 1 1 2 2 2 1 2 3 3 3 2 3 4 3 4 4 5 5 5 5 5
8 7 7 7 7 7 7 6 5 4 4 4 3 2 2 1 1 1 1 0 1 1 1 1 2 2 2 2 3 4 3 3 3 3 4 4 5 5 5 5 4 5 4
8 7 7 7 7 7 7 7 5 5 4 4 3 2 2 2 2 1 1 1 1 1 2 2 2 2 2 2 3 3 3 3 3 4 4 4 4 5 5 5 4 4 4
8 8 7 7 7 7 7 7 6 5 5 4 3 3 2 2 2 2 1 2 1 1 2 2 2 1 2 2 2 3 3 2 3 3 4 4 4 5 5 5 5 5 5
8 8 8 7 7 7 7 7 6 6 5 4 3 3 3 2 2 2 2 2 2 1 2 2 2 2 2 1 1 2 3 3 3 3 4 4 3 4 5 5 5 6 6
8 9 9 8 8 7 7 6 6 6 6 5 4 3 3 3 2 2 2 2 2 2 2 2 2 2 2 2 2 2 3 3 3 3 3 3 4 4 4 5 5 5 6
9 9 9 8 8 7 7 7 6 6 6 5 4 4 3 3 2 2 2 3 2 2 2 2 2 2 2 2 2 2 2 3 3 3 3 4 5 5 4 4 4 4 6
8 9 9 9 8 8 7 7 7 6 6 5 5 4 3 3 3 3 4 3 3 3 2 2 2 2 3 3 3 3 2 2 3 4 4 4 4 5 5 5 5 5 6
8 8 9 9 9 8 8 7 7 6 6 6 5 4 4 4 4 4 4 4 4 4 3 3 3 3 3 3 4 4 4 3 3 4 4 5 5 5 5 6 7 7 7
9 8 8 8 9 8 8 7 7 7 6 6 6 5 5 5 5 5 5 5 4 5 5 4 4 4 4 4 4 4 5 5 5 5 4 5 5 5 6 6 7 8 8
10 9 9 9 9 9 8 8 8 7 7 6 6 6 6 6 6 6 5 6 5 6 6 5 5 5 5 6 5 5 5 6 6 6 6 6 6 5 6 6 7 8 9
10 10 10 10 10 9 9 9 8 8 8 8 7 7 6 6 6 6 7 7 6 6 6 6 6 6 6 5 5 6 6 6 6 7 7 6 6 7 7 7 8 8 9
10 9 10 10 10 10 10 10 10 10 10 10 9 9 8 7 7 7 7 7 7 7 7 6 6 6 6 5 5 6 7 7 7 6 7 7 7 7 7 7 8 9 8
10 10 10 11 11 11 11 11 11 10 10 10 10 10 9 8 8 7 8 7 7 8 8 7 7 7 6 7 7 8 8 8 8 7 7 8 8 8 8 8 8 8 8
11 11 11 11 11 11 12 12 12 11 11 11 10 10 10 10 9 8 8 8 8 8 7 8 8 8 8 8 9 9 9 9 9 9 9 9 9 8 8 8 7 7 7
11 11 11 11 12 12 12 13 13 13 12 11 11 11 10 10 10 10 9 9 8 8 8 8 8 8 9 9 9 8 9 9 10 10 10 10 9 9 9 8 8 7 8
12 12 12 12 12 12 12 13 14 14 13 12 11 11 11 11 11 11 10 10 9 9 9 9 9 9 9 9 9 9 9 10 10 9 9 9 9 8 8 8 9 9 9
13 12 12 12 13 13 13 14 14 14 13 12 12 12 12 11 11 11 10 10 10 10 10 10 10 10 10 10 10 10 10 10 9 9 9 9 9 8 8 8 9 9 9
14 14 13 14 15 15 15 15 15 15 14 13 12 12 11 11 11 11 11 10 10 11 11 11 10 10 9 9 10 10 10 10 10 9 9 9 9 9 9 9 9 10 10
15 15 14 15 15 16 15 16 16 15 14 13 13 12 12 11 11 11 12 11 11 11 12 12 11 11 10 11 11 11 10 9 10 10 10 10 10 10 9 10 10 11 11
16 15 15 16 16 16 15 15 15 14 14 14 13 13 13 12 12 12 12 12 11 11 11 11 11 11 11 11 12 12 11 10 10 10 10 10 11 11 11 11 11 11 12
17 17 16 16 16 16 15 15 15 14 14 14 13 13 13 14 13 12 13 13 12 11 11 10 11 11 10 10 11 11 11 11 11 11 11 11 12 12 12 13 13 12 12
18 17 16 16 16 16 16 15 15 14 14 14 14 14 15 15 14 13 12 12 11 11 11 10 10 10 10 10 10 10 11 11 12 12 12 12 13 13 13 13 14 13 13
Wind_Direction
12 12 13 14 18 16 9 6 5 3 2 4 358 355 360 38 94 165 230 234 225 221 176 184 202 199 199 210 217 217 210 211 212 202 195 197 194 202 204 203 201 207 215
11 12 14 15 14 10 3 357 355 356 357 359 355 338 346 351 30 106 312 278 240 238 192 186 196 205 200 203 211 204 210 212 193 195 201 202 196 194 203 208 206 210 212
7 6 7 9 9 6 3 356 347 349 354 355 348 341 1 3 354 7 346 320 290 255 200 187 179 189 194 193 203 200 198 195 187 193 205 210 208 202 202 203 204 214 218
1 0 357 360 4 3 1 359 352 346 350 349 342 334 350 14 10 359 352 314 252 223 177 199 172 179 192 184 205 200 190 194 196 197 199 202 209 208 209 211 217 220 222
356 354 352 352 357 2 1 354 350 345 340 334 328 320 314 320 350 357 360 45 204 199 192 194 176 179 188 180 190 189 195 205 209 205 202 209 221 220 215 216 228 218 223
354 348 348 348 352 357 357 356 351 348 341 333 329 319 311 312 328 337 323 322 307 218 214 215 168 154 188 209 201 199 205 209 213 215 213 220 229 235 229 227 232 232 231
350 345 344 342 346 350 349 348 348 344 337 330 321 312 304 293 297 308 310 307 304 252 222 182 179 164 199 219 216 223 222 218 222 219 217 220 223 239 248 250 250 255 253
347 345 341 338 339 340 340 339 343 344 340 329 319 315 308 294 285 282 299 299 288 275 223 205 201 216 232 245 251 244 235 245 244 228 228 227 228 237 241 254 253 256 252
341 341 338 334 334 334 336 337 340 340 339 332 323 320 322 319 293 284 297 293 288 280 249 219 222 226 238 249 264 269 262 259 258 234 232 236 245 244 247 250 251 257 250
334 336 334 331 329 331 330 326 331 340 339 335 328 324 317 316 301 284 285 288 286 284 264 240 243 261 256 250 257 273 272 275 275 262 252 246 250 249 257 251 258 253 249
327 333 334 330 326 327 326 323 326 329 333 332 330 328 318 310 299 286 284 292 290 287 275 257 254 260 265 264 263 266 263 270 288 285 269 262 255 257 260 259 259 257 255
323 327 332 330 327 325 324 322 322 325 324 323 323 323 315 310 306 300 295 291 283 277 273 274 272 278 280 271 261 259 264 275 280 285 283 275 264 261 260 257 257 260 258
321 322 330 328 327 326 326 324 324 324 321 318 318 317 312 310 307 303 300 298 286 277 272 269 273 274 282 284 290 283 273 277 277 280 277 272 266 264 269 264 263 259 257
317 319 322 323 327 326 324 323 323 324 321 317 316 314 308 303 303 301 299 299 289 280 276 276 274 275 285 285 289 297 290 286 285 281 276 273 273 269 268 271 272 266 261
314 314 313 319 324 326 325 323 322 322 320 316 315 314 307 301 301 302 301 295 289 282 276 277 278 278 280 283 288 292 287 286 289 287 282 281 279 272 272 276 277 273 267
307 310 312 316 322 324 322 321 319 320 319 316 316 316 311 305 298 297 300 295 288 283 281 278 279 281 283 279 283 288 290 289 293 292 286 285 278 272 275 277 278 276 276
299 304 308 312 317 319 321 320 317 318 317 319 316 314 313 309 303 296 292 291 287 284 281 280 280 282 281 279 280 282 285 290 290 286 281 279 278 278 281 282 280 278 277
293 297 303 308 312 313 315 316 315 312 312 316 319 315 311 305 299 295 291 288 287 287 283 279 278 278 279 278 278 279 281 286 290 285 279 277 275 277 282 283 277 276 275
293 295 301 305 307 310 312 314 314 311 308 312 312 312 310 305 297 294 293 290 287 285 283 281 282 279 279 275 277 282 283 285 287 285 283 283 280 277 277 277 276 277 274
290 292 297 300 305 306 309 313 313 313 309 308 308 306 306 303 301 297 293 293 287 281 280 282 281 280 280 277 276 278 285 286 284 283 286 287 284 280 278 282 281 279 275
287 290 291 295 300 302 306 308 310 311 310 307 304 305 307 303 300 299 294 291 286 280 279 280 279 280 281 281 283 283 283 285 287 286 283 283 285 287 288 288 281 276 277
285 285 287 290 296 298 301 304 306 306 305 308 305 304 306 302 299 297 293 289 287 283 280 278 276 279 280 279 282 284 283 286 288 285 279 280 284 287 287 287 286 282 278
280 281 282 288 294 298 300 302 304 304 303 306 305 302 302 302 300 295 291 288 285 282 279 277 278 278 277 277 281 283 287 289 287 287 282 280 283 286 289 285 285 286 283
276 278 281 285 290 294 297 301 302 304 303 304 304 299 295 297 297 291 286 284 282 280 280 279 279 280 276 278 279 281 286 288 291 289 284 282 284 285 286 289 288 285 286
274 273 277 283 287 290 292 295 298 301 301 301 303 299 297 296 297 292 285 283 279 276 277 278 279 279 277 278 280 282 284 288 292 291 287 284 285 282 283 285 287 286 285
273 271 274 280 283 285 285 287 294 297 299 300 302 302 300 301 302 300 291 287 285 280 277 277 279 282 279 280 282 284 284 288 294 293 290 287 284 284 284 284 284 285 284
Height
5887 5886 5885 5884 5882 5882 5881 5881 5880 5879 5878 5877 5876 5876 5875 5874 5874 5874 5874 5874 5874 5874 5874 5874 5874 5875 5875 5875 5875 5876 5877 5877 5878 5878 5879 5879 5880 5881 5881 5883 5884 5884 5885
5888 5887 5886 5884 5883 5882 5882 5881 5880 5879 5878 5877 5877 5876 5875 5875 5875 5875 5874 5874 5873 5873 5874 5874 5874 5875 5875 5875 5875 5876 5876 5877 5878 5879 5879 5880 5880 5880 5881 5882 5883 5884 5885
5888 5887 5886 5885 5884 5883 5882 5881 5880 5880 5879 5878 5877 5876 5876 5875 5875 5875 5874 5874 5873 5873 5873 5874 5874 5875 5875 5875 5875 5876 5876 5877 5878 5878 5879 5880 5880 5880 5881 5882 5883 5883 5884
5889 5888 5887 5885 5884 5883 5882 5881 5880 5880 5879 5878 5877 5877 5876 5875 5875 5875 5874 5874 5874 5873 5873 5874 5874 5875 5875 5875 5875 5876 5876 5877 5878 5879 5879 5880 5880 5881 5881 5882 5883 5883 5884
5889 5888 5887 5886 5885 5884 5883 5882 5881 5880 5879 5878 5878 5877 5876 5876 5875 5875 5874 5874 5874 5873 5874 5874 5875 5875 5875 5875 5875 5876 5876 5877 5878 5879 5879 5880 5880 5881 5881 5882 5883 5883 5884
5889 5888 5887 5886 5885 5884 5883 5882 5881 5880 5879 5878 5878 5877 5876 5876 5875 5875 5875 5875 5874 5874 5874 5875 5875 5875 5875 5876 5876 5876 5876 5877 5877 5878 5879 5879 5879 5880 5881 5882 5882 5883 5883
5890 5888 5887 5886 5885 5884 5883 5882 5881 5880 5879 5878 5878 5877 5877 5876 5876 5875 5875 5875 5875 5875 5875 5875 5875 5875 5876 5876 5876 5876 5876 5877 5877 5878 5878 5879 5879 5880 5881 5881 5882 5883 5883
5890 5888 5887 5886 5886 5884 5883 5882 5881 5880 5879 5878 5878 5877 5877 5877 5876 5876 5875 5875 5875 5875 5875 5875 5875 5875 5876 5876 5876 5876 5876 5877 5877 5877 5878 5878 5879 5879 5880 5880 5881 5882 5882
5890 5889 5887 5886 5885 5884 5883 5882 5881 5880 5879 5878 5878 5878 5877 5876 5876 5876 5876 5876 5876 5875 5875 5875 5875 5875 5875 5876 5876 5876 5876 5876 5877 5877 5877 5878 5878 5879 5879 5880 5880 5881 5881
5889 5888 5887 5886 5885 5884 5883 5882 5881 5880 5880 5879 5878 5877 5877 5876 5876 5876 5876 5876 5875 5875 5875 5875 5875 5875 5875 5875 5876 5876 5876 5876 5877 5877 5877 5877 5878 5878 5878 5879 5879 5880 5880
5889 5888 5886 5885 5885 5884 5883 5882 5881 5880 5879 5879 5878 5877 5877 5877 5876 5876 5876 5875 5875 5875 5875 5875 5875 5875 5875 5875 5875 5875 5876 5876 5876 5876 5876 5876 5877 5877 5878 5878 5879 5879 5879
5888 5887 5886 5885 5884 5883 5882 5882 5881 5880 5879 5879 5878 5878 5877 5877 5876 5876 5875 5875 5875 5875 5875 5875 5875 5875 5875 5875 5875 5875 5876 5875 5875 5876 5876 5876 5877 5877 5877 5878 5878 5878 5878
5887 5886 5885 5884 5884 5883 5882 5881 5881 5880 5879 5879 5878 5877 5877 5876 5876 5875 5875 5875 5874 5874 5874 5874 5874 5874 5874 5874 5875 5875 5875 5875 5875 5875 5875 5875 5876 5876 5876 5877 5877 5877 5877
5887 5886 5885 5884 5883 5883 5882 5881 5880 5880 5879 5878 5877 5877 5876 5876 5875 5875 5874 5874 5874 5874 5874 5874 5874 5874 5874 5874 5874 5874 5874 5874 5874 5874 5874 5875 5875 5875 5875 5875 5876 5876 5876
5886 5886 5885 5884 5883 5882 5882 5881 5880 5879 5878 5877 5876 5876 5875 5875 5874 5874 5873 5873 5873 5873 5873 5873 5873 5873 5873 5873 5873 5873 5873 5873 5873 5873 5873 5874 5874 5874 5874 5874 5874 5874 5874
5885 5885 5884 5883 5883 5882 5881 5880 5879 5878 5878 5877 5876 5875 5874 5873 5873 5872 5872 5872 5872 5872 5872 5872 5872 5872 5872 5872 5872 5872 5872 5872 5872 5872 5872 5872 5873 5873 5873 5873 5873 5873 5873
5884 5884 5883 5882 5882 5881 5880 5879 5878 5878 5877 5876 5875 5874 5873 5872 5871 5871 5871 5871 5870 5870 5870 5870 5871 5871 5871 5871 5871 5871 5871 5871 5871 5871 5871 5871 5871 5871 5871 5871 5871 5871 5871
5882 5882 5882 5881 5881 5880 5879 5878 5877 5876 5875 5875 5874 5873 5872 5871 5870 5870 5870 5869 5869 5869 5869 5869 5870 5870 5870 5870 5870 5870 5870 5870 5870 5869 5869 5869 5869 5869 5869 5869 5869 5869 5870
5881 5880 5880 5880 5880 5879 5878 5877 5876 5875 5874 5873 5872 5871 5870 5869 5868 5868 5868 5868 5868 5868 5868 5868 5868 5868 5868 5868 5868 5868 5868 5868 5868 5868 5868 5868 5868 5868 5868 5867 5867 5867 5868
5879 5879 5879 5878 5878 5877 5877 5876 5874 5873 5872 5871 5871 5870 5869 5868 5867 5866 5866 5866 5866 5866 5866 5866 5866 5866 5866 5866 5866 5866 5866 5867 5866 5866 5866 5866 5866 5866 5865 5866 5866 5866 5866
5877 5877 5877 5877 5876 5876 5875 5874 5872 5871 5870 5870 5869 5868 5867 5866 5865 5865 5864 5864 5864 5864 5865 5865 5865 5864 5865 5865 5864 5864 5865 5864 5864 5864 5864 5864 5864 5864 5864 5864 5864 5864 5864
5874 5874 5875 5874 5874 5873 5873 5871 5870 5869 5868 5868 5867 5866 5865 5864 5864 5863 5863 5862 5862 5862 5862 5862 5862 5862 5862 5863 5863 5863 5863 5863 5862 5862 5862 5862 5862 5862 5862 5862 5862 5862 5862
5871 5872 5872 5871 5871 5870 5870 5869 5868 5867 5866 5865 5865 5864 5863 5862 5862 5861 5860 5860 5860 5860 5860 5860 5860 5860 5860 5861 5860 5861 5861 5860 5860 5861 5860 5860 5860 5859 5859 5858 5858 5859 5859
5868 5868 5868 5868 5868 5867 5867 5866 5865 5864 5863 5863 5862 5862 5861 5860 5860 5859 5858 5858 5858 5858 5857 5857 5857 5858 5858 5858 5858 5858 5859 5858 5857 5858 5858 5858 5857 5857 5857 5856 5856 5856 5856
5864 5865 5865 5865 5864 5864 5864 5863 5862 5862 5861 5860 5860 5859 5858 5858 5857 5856 5856 5856 5856 5855 5855 5855 5855 5855 5856 5856 5856 5856 5856 5856 5855 5855 5856 5855 5855 5854 5854 5854 5854 5853 5853
5860 5860 5861 5861 5861 5861 5860 5860 5859 5859 5858 5857 5857 5856 5856 5855 5854 5854 5854 5853 5853 5853 5853 5853 5853 5853 5853 5853 5854 5854 5854 5853 5853 5853 5852 5852 5852 5852 5852 5851 5850 5849 5850